Location: Oklahoma City
(35.4680°N, 97.5160°W)
Time: 17:12:44
(UTC-06:00)

ISS - All Passes

Search period start: 25 November 2014 00:00
Search period end: 05 December 2014 00:00
Orbit: 407 x 417 km, 51.6° (Epoch: 25 November)

Date Brightness Start Highest point End Pass type
(mag) Time Alt. Az. Time Alt. Az. Time Alt. Az.
25 Nov - 00:55:11 10° W 00:57:47 21° NNW 01:00:23 10° NNE night (unlit)
25 Nov - 05:49:28 10° NNW 05:51:35 16° NNE 05:53:42 10° ENE visible
25 Nov - 07:25:14 10° NW 07:28:30 61° SW 07:31:45 10° SE daylight
25 Nov - 22:29:08 10° S 22:31:26 18° SE 22:33:45 10° E night (unlit)
26 Nov - 00:04:50 10° WSW 00:07:52 35° NW 00:10:56 10° NNE night (unlit)
26 Nov - 05:00:37 10° N 05:01:32 11° NNE 05:02:27 10° NE visible
26 Nov - 06:35:26 10° NW 06:38:43 65° NE 06:41:59 10° ESE visible
26 Nov - 23:14:41 10° SW 23:17:57 68° NW 23:21:14 10° NE night (unlit)
27 Nov - 00:54:05 10° NW 00:55:06 11° NNW 00:56:07 10° N night (unlit)
27 Nov - 05:45:42 10° NNW 05:48:45 34° NE 05:51:48 10° ESE visible
27 Nov - 07:22:48 10° W 07:25:12 19° SW 07:27:36 10° S daylight
27 Nov - 22:24:47 10° SW 22:28:00 57° SE 22:31:14 10° NE night (unlit)
28 Nov - 00:02:43 10° WNW 00:04:52 16° NNW 00:07:02 10° NNE night (unlit)
28 Nov - 04:56:03 10° NNW 04:58:37 21° NNE 05:01:11 10° E visible
28 Nov - 06:32:15 10° WNW 06:35:20 37° SW 06:38:23 10° SSE visible
28 Nov - 21:35:11 10° SSW 21:38:01 27° SE 21:40:52 10° ENE night (unlit)
28 Nov - 23:11:49 10° W 23:14:37 25° NNW 23:17:25 10° NNE night (unlit)
29 Nov - 04:06:32 10° N 04:08:18 14° NNE 04:10:05 10° ENE visible
29 Nov - 05:42:00 10° NW 05:45:17 80° SW 05:48:34 10° SE visible
29 Nov - 20:46:12 10° SSE 20:48:01 14° SE 20:49:50 10° E night (unlit)
29 Nov - 22:21:10 10° WSW 22:24:20 44° NW 22:27:30 10° NE night (unlit)
30 Nov - 04:51:51 10° NW 04:55:04 50° NE 04:58:17 10° ESE visible
30 Nov - 06:29:53 10° W 06:31:20 12° SW 06:32:48 10° SSW visible
30 Nov - 21:30:45 10° SW 21:34:02 89° NW 21:37:19 10° NE night (unlit)
30 Nov - 23:09:29 10° NW 23:11:03 13° NNW 23:12:37 10° N night (unlit)
01 Dec - 04:01:48 10° NNW 04:04:41 27° NE 04:07:34 10° E visible
01 Dec - 05:38:28 10° WNW 05:41:12 24° SW 05:43:55 10° S visible
01 Dec - 20:40:35 10° SSW 20:43:42 42° SE 20:46:50 10° ENE night (unlit)
01 Dec - 22:17:59 10° W 22:20:26 19° NNW 22:22:53 10° NNE night (unlit)
02 Dec - 03:11:49 10° NNW 03:14:07 17° NNE 03:16:24 10° ENE night (unlit)
02 Dec - 04:47:42 10° WNW 04:50:54 50° SW 04:54:05 10° SSE visible
02 Dec - 19:50:49 10° S 19:53:21 21° SE 19:55:54 10° E night (unlit)
02 Dec - 21:26:50 10° W 21:29:48 31° NW 21:32:47 10° NNE night (unlit)
03 Dec - 02:22:05 10° N 02:23:21 12° NNE 02:24:37 10° NE night (unlit)
03 Dec - 03:57:08 10° NW 04:00:26 76° NE 04:03:42 10° SE night (unlit)
03 Dec - 19:02:18 10° SE 19:02:58 11° SE 19:03:38 10° ESE visible
03 Dec - 20:35:54 10° WSW 20:39:09 59° NW 20:42:24 10° NE night (unlit)
03 Dec - 22:15:45 10° NNW 22:16:19 10° NNW 22:16:53 10° NNW night (unlit)
04 Dec - 03:06:40 10° NNW 03:09:46 38° NE 03:12:52 10° ESE night (unlit)
04 Dec - 04:43:57 10° W 04:46:07 17° SW 04:48:17 10° S night (unlit)
04 Dec - 19:45:14 10° SW 19:48:29 65° SE 19:51:44 10° NE visible
04 Dec - 21:23:20 10° WNW 21:25:21 15° NNW 21:27:22 10° N night (unlit)
